Time,TemperatureF,DewpointF,PressureIn,WindDirection,WindDirectionDegrees,WindSpeedMPH,WindSpeedGustMPH,Humidity,HourlyPrecipIn,Conditions,Clouds,dailyrainin,SoftwareType,DateUTC
2013-02-14 00:00:00,28.5,27.5,29.54,SSE,159,0.0,0.0,96,0.00,,SKC,0.00,VWS V14.01,2013-02-14 06:00:00,
2013-02-14 00:01:00,28.6,27.6,29.55,SSE,156,0.0,0.0,96,0.00,,SKC,0.00,VWS V14.01,2013-02-14 06:01:00,
2013-02-14 00:05:00,28.5,27.5,29.54,SSE,159,0.0,0.0,96,0.00,,SKC,0.00,VWS V14.01,2013-02-14 06:05:00,
2013-02-14 00:06:00,28.6,27.6,29.55,SSE,156,0.0,0.0,96,0.00,,SKC,0.00,VWS V14.01,2013-02-14 06:06:00,
2013-02-14 00:10:00,28.4,27.4,29.54,SSE,159,0.0,0.0,96,0.00,,SKC,0.00,VWS V14.01,2013-02-14 06:10:00,
2013-02-14 00:11:00,28.6,27.6,29.55,SSE,156,0.0,0.0,96,0.00,,SKC,0.00,VWS V14.01,2013-02-14 06:11:00,
2013-02-14 00:15:00,28.3,27.3,29.54,SSE,159,0.0,0.0,96,0.00,,SKC,0.00,VWS V14.01,2013-02-14 06:15:00,
2013-02-14 00:16:00,28.6,27.6,29.55,SSE,156,0.0,0.0,96,0.00,,SKC,0.00,VWS V14.01,2013-02-14 06:16:00,
2013-02-14 00:20:00,28.3,27.3,29.54,SSE,159,0.0,0.0,96,0.00,,SKC,0.00,VWS V14.01,2013-02-14 06:20:00,
2013-02-14 00:21:00,28.6,27.6,29.55,SSE,157,0.0,0.0,96,0.00,,SKC,0.00,VWS V14.01,2013-02-14 06:21:00,
2013-02-14 00:25:00,28.3,27.3,29.54,SSE,159,0.0,0.0,96,0.00,,SKC,0.00,VWS V14.01,2013-02-14 06:25:00,
2013-02-14 00:26:00,28.6,27.6,29.55,SSE,157,0.0,0.0,96,0.00,,SKC,0.00,VWS V14.01,2013-02-14 06:26:00,
2013-02-14 00:30:00,28.3,27.3,29.54,SSE,159,0.0,0.0,96,0.00,,SKC,0.00,VWS V14.01,2013-02-14 06:30:00,
2013-02-14 00:31:00,28.7,27.7,29.55,SSE,159,0.0,0.0,96,0.00,,SKC,0.00,VWS V14.01,2013-02-14 06:31:00,
2013-02-14 00:35:00,28.3,27.3,29.54,SSE,159,0.0,0.0,96,0.00,,SKC,0.00,VWS V14.01,2013-02-14 06:35:00,
2013-02-14 00:36:00,28.7,27.7,29.55,SSE,159,0.0,0.0,96,0.00,,SKC,0.00,VWS V14.01,2013-02-14 06:36:00,
2013-02-14 00:40:00,28.3,27.3,29.54,SSE,159,0.0,0.0,96,0.00,,SKC,0.00,VWS V14.01,2013-02-14 06:40:00,
2013-02-14 00:41:00,28.7,27.7,29.55,SSE,159,0.0,0.0,96,0.00,,SKC,0.00,VWS V14.01,2013-02-14 06:41:00,
2013-02-14 00:45:00,28.2,27.2,29.54,SSE,159,0.0,0.0,96,0.00,,SKC,0.00,VWS V14.01,2013-02-14 06:45:00,
2013-02-14 00:46:00,28.6,27.6,29.54,SSE,159,0.0,0.0,96,0.00,,SKC,0.00,VWS V14.01,2013-02-14 06:46:00,
2013-02-14 00:50:00,28.3,27.3,29.54,SSE,159,0.0,0.0,96,0.00,,SKC,0.00,VWS V14.01,2013-02-14 06:50:00,
2013-02-14 00:51:00,28.6,27.6,29.54,SSE,159,0.0,0.0,96,0.00,,SKC,0.00,VWS V14.01,2013-02-14 06:51:00,
2013-02-14 00:55:00,28.3,27.3,29.54,SSE,159,0.0,0.0,96,0.00,,SKC,0.00,VWS V14.01,2013-02-14 06:55:00,
2013-02-14 00:56:00,28.6,27.6,29.54,SSE,159,0.0,0.0,96,0.00,,SKC,0.00,VWS V14.01,2013-02-14 06:56:00,
2013-02-14 01:00:00,28.3,27.3,29.53,SSE,159,0.0,0.0,96,0.00,,SKC,0.00,VWS V14.01,2013-02-14 07:00:00,
2013-02-14 01:01:00,28.5,27.5,29.54,SSE,159,0.0,0.0,96,0.00,,SKC,0.00,VWS V14.01,2013-02-14 07:01:00,
2013-02-14 01:05:00,28.2,27.2,29.53,SSE,159,0.0,0.0,96,0.00,,SKC,0.00,VWS V14.01,2013-02-14 07:05:00,
2013-02-14 01:06:00,28.5,27.5,29.54,SSE,159,0.0,0.0,96,0.00,,SKC,0.00,VWS V14.01,2013-02-14 07:06:00,
2013-02-14 01:10:00,28.1,27.1,29.53,SSE,159,0.0,0.0,96,0.00,,SKC,0.00,VWS V14.01,2013-02-14 07:10:00,
2013-02-14 01:11:00,28.4,27.4,29.54,SSE,159,0.0,0.0,96,0.00,,SKC,0.00,VWS V14.01,2013-02-14 07:11:00,
2013-02-14 01:15:00,28.1,27.1,29.53,SSE,159,0.0,0.0,96,0.00,,SKC,0.00,VWS V14.01,2013-02-14 07:15:00,
2013-02-14 01:16:00,28.3,27.3,29.54,SSE,159,0.0,0.0,96,0.00,,SKC,0.00,VWS V14.01,2013-02-14 07:16:00,
2013-02-14 01:20:00,28.0,27.0,29.53,SSE,159,0.0,0.0,96,0.00,,SKC,0.00,VWS V14.01,2013-02-14 07:20:00,
2013-02-14 01:21:00,28.3,27.3,29.54,SSE,159,0.0,0.0,96,0.00,,SKC,0.00,VWS V14.01,2013-02-14 07:21:00,
2013-02-14 01:25:00,27.9,26.9,29.53,SSE,159,0.0,0.0,96,0.00,,SKC,0.00,VWS V14.01,2013-02-14 07:25:00,
2013-02-14 01:26:00,28.3,27.3,29.54,SSE,159,0.0,0.0,96,0.00,,SKC,0.00,VWS V14.01,2013-02-14 07:26:00,
2013-02-14 01:30:00,27.8,26.8,29.53,SSE,159,0.0,0.0,96,0.00,,SKC,0.00,VWS V14.01,2013-02-14 07:30:00,
2013-02-14 01:31:00,28.3,27.3,29.54,SSE,159,0.0,0.0,96,0.00,,SKC,0.00,VWS V14.01,2013-02-14 07:31:00,
2013-02-14 01:35:00,27.8,26.8,29.53,SSE,159,0.0,0.0,96,0.00,,SKC,0.00,VWS V14.01,2013-02-14 07:35:00,
2013-02-14 01:36:00,28.3,27.3,29.54,SSE,159,0.0,0.0,96,0.00,,SKC,0.00,VWS V14.01,2013-02-14 07:36:00,
2013-02-14 01:40:00,27.8,26.8,29.53,SSE,159,0.0,0.0,96,0.00,,SKC,0.00,VWS V14.01,2013-02-14 07:40:00,
2013-02-14 01:41:00,28.3,27.3,29.54,SSE,159,0.0,0.0,96,0.00,,SKC,0.00,VWS V14.01,2013-02-14 07:41:00,
2013-02-14 01:45:00,27.7,26.7,29.53,SSE,159,0.0,0.0,96,0.00,,SKC,0.00,VWS V14.01,2013-02-14 07:45:00,
2013-02-14 01:47:00,28.3,27.3,29.54,SSE,159,0.0,0.0,96,0.00,,SKC,0.00,VWS V14.01,2013-02-14 07:47:00,
2013-02-14 01:50:00,27.8,26.8,29.53,SSE,159,0.0,0.0,96,0.00,,SKC,0.00,VWS V14.01,2013-02-14 07:50:00,
2013-02-14 01:52:00,28.3,27.3,29.54,SSE,159,0.0,0.0,96,0.00,,SKC,0.00,VWS V14.01,2013-02-14 07:52:00,
2013-02-14 01:55:00,27.8,27.1,29.53,SSE,159,0.0,0.0,97,0.00,,SKC,0.00,VWS V14.01,2013-02-14 07:55:00,
2013-02-14 01:57:00,28.3,27.3,29.54,SSE,159,0.0,0.0,96,0.00,,SKC,0.00,VWS V14.01,2013-02-14 07:57:00,
2013-02-14 02:00:00,27.9,27.2,29.53,NW,325,0.0,0.0,97,0.00,,SKC,0.00,VWS V14.01,2013-02-14 08:00:00,
2013-02-14 02:02:00,28.3,27.3,29.53,SSE,159,0.0,0.0,96,0.00,,SKC,0.00,VWS V14.01,2013-02-14 08:02:00,
2013-02-14 02:05:00,28.0,27.3,29.53,NW,325,0.0,0.0,97,0.00,,SKC,0.00,VWS V14.01,2013-02-14 08:05:00,
2013-02-14 02:07:00,28.2,27.2,29.53,SSE,159,0.0,0.0,96,0.00,,SKC,0.00,VWS V14.01,2013-02-14 08:07:00,
2013-02-14 02:10:00,28.0,27.3,29.53,NW,324,0.0,0.0,97,0.00,,SKC,0.00,VWS V14.01,2013-02-14 08:10:00,
2013-02-14 02:12:00,28.2,27.2,29.53,SSE,159,0.0,0.0,96,0.00,,SKC,0.00,VWS V14.01,2013-02-14 08:12:00,
2013-02-14 02:15:00,28.0,27.3,29.53,NE,54,0.0,0.0,97,0.00,,SKC,0.00,VWS V14.01,2013-02-14 08:15:00,
2013-02-14 02:17:00,28.1,27.1,29.53,SSE,159,0.0,0.0,96,0.00,,SKC,0.00,VWS V14.01,2013-02-14 08:17:00,
2013-02-14 02:20:00,28.0,27.3,29.53,NE,54,0.0,0.0,97,0.00,,SKC,0.00,VWS V14.01,2013-02-14 08:20:00,
2013-02-14 02:22:00,28.0,27.0,29.53,SSE,159,0.0,0.0,96,0.00,,SKC,0.00,VWS V14.01,2013-02-14 08:22:00,
2013-02-14 02:25:00,28.0,27.3,29.53,ENE,68,0.0,0.0,97,0.00,,SKC,0.00,VWS V14.01,2013-02-14 08:25:00,
2013-02-14 02:27:00,27.9,26.9,29.53,SSE,159,0.0,0.0,96,0.00,,SKC,0.00,VWS V14.01,2013-02-14 08:27:00,
2013-02-14 02:30:00,28.0,27.3,29.53,ENE,68,0.0,0.0,97,0.00,,SKC,0.00,VWS V14.01,2013-02-14 08:30:00,
2013-02-14 02:32:00,27.8,26.8,29.53,SSE,159,0.0,0.0,96,0.00,,SKC,0.00,VWS V14.01,2013-02-14 08:32:00,
2013-02-14 02:35:00,28.0,27.3,29.53,ENE,68,0.0,0.0,97,0.00,,SKC,0.00,VWS V14.01,2013-02-14 08:35:00,
2013-02-14 02:37:00,27.8,26.8,29.53,SSE,159,0.0,0.0,96,0.00,,SKC,0.00,VWS V14.01,2013-02-14 08:37:00,
2013-02-14 02:40:00,28.0,27.3,29.53,ENE,69,0.0,0.0,97,0.00,,SKC,0.00,VWS V14.01,2013-02-14 08:40:00,
2013-02-14 02:42:00,27.8,26.8,29.53,SSE,159,0.0,0.0,96,0.00,,SKC,0.00,VWS V14.01,2013-02-14 08:42:00,
2013-02-14 02:45:00,27.9,26.9,29.53,ENE,68,0.0,0.0,96,0.00,,SKC,0.00,VWS V14.01,2013-02-14 08:45:00,
2013-02-14 02:47:00,27.7,26.7,29.53,SSE,159,0.0,0.0,96,0.00,,SKC,0.00,VWS V14.01,2013-02-14 08:47:00,
2013-02-14 02:50:00,27.8,26.8,29.53,NNE,17,0.0,0.0,96,0.00,,SKC,0.00,VWS V14.01,2013-02-14 08:50:00,
2013-02-14 02:52:00,27.8,26.8,29.53,SSE,159,0.0,0.0,96,0.00,,SKC,0.00,VWS V14.01,2013-02-14 08:52:00,
2013-02-14 02:55:00,27.7,26.7,29.53,North,10,0.0,0.0,96,0.00,,SKC,0.00,VWS V14.01,2013-02-14 08:55:00,
2013-02-14 02:57:00,27.8,27.1,29.53,SSE,159,0.0,0.0,97,0.00,,SKC,0.00,VWS V14.01,2013-02-14 08:57:00,
2013-02-14 03:00:00,27.6,26.6,29.53,NNE,22,0.0,0.0,96,0.00,,SKC,0.00,VWS V14.01,2013-02-14 09:00:00,
2013-02-14 03:02:00,27.9,27.2,29.53,NW,324,0.0,0.0,97,0.00,,SKC,0.00,VWS V14.01,2013-02-14 09:02:00,
2013-02-14 03:05:00,27.5,26.5,29.53,WNW,296,0.0,0.0,96,0.00,,SKC,0.00,VWS V14.01,2013-02-14 09:05:00,
2013-02-14 03:07:00,28.0,27.3,29.53,NW,325,0.0,0.0,97,0.00,,SKC,0.00,VWS V14.01,2013-02-14 09:07:00,
2013-02-14 03:10:00,27.4,26.4,29.53,WSW,250,0.0,0.0,96,0.00,,SKC,0.00,VWS V14.01,2013-02-14 09:10:00,
2013-02-14 03:12:00,28.0,27.3,29.53,NW,324,0.0,0.0,97,0.00,,SKC,0.00,VWS V14.01,2013-02-14 09:12:00,
2013-02-14 03:15:00,27.3,26.3,29.53,West,281,0.0,0.0,96,0.00,,SKC,0.00,VWS V14.01,2013-02-14 09:15:00,
2013-02-14 03:17:00,28.0,27.3,29.53,NE,54,0.0,0.0,97,0.00,,SKC,0.00,VWS V14.01,2013-02-14 09:17:00,
2013-02-14 03:20:00,27.2,26.0,29.53,West,263,0.0,0.0,95,0.00,,SKC,0.00,VWS V14.01,2013-02-14 09:20:00,
2013-02-14 03:22:00,28.0,27.3,29.53,NE,54,0.0,0.0,97,0.00,,SKC,0.00,VWS V14.01,2013-02-14 09:22:00,
2013-02-14 03:25:00,27.0,25.8,29.53,West,277,0.0,0.0,95,0.00,,SKC,0.00,VWS V14.01,2013-02-14 09:25:00,
2013-02-14 03:27:00,28.0,27.3,29.53,ENE,68,0.0,0.0,97,0.00,,SKC,0.00,VWS V14.01,2013-02-14 09:27:00,
2013-02-14 03:30:00,26.9,25.7,29.53,ENE,59,0.0,0.0,95,0.00,,SKC,0.00,VWS V14.01,2013-02-14 09:30:00,
2013-02-14 03:32:00,28.0,27.3,29.53,ENE,68,0.0,0.0,97,0.00,,SKC,0.00,VWS V14.01,2013-02-14 09:32:00,
2013-02-14 03:35:00,26.8,25.6,29.53,ENE,70,0.0,0.0,95,0.00,,SKC,0.00,VWS V14.01,2013-02-14 09:35:00,
2013-02-14 03:37:00,28.0,27.3,29.53,ENE,68,0.0,0.0,97,0.00,,SKC,0.00,VWS V14.01,2013-02-14 09:37:00,
2013-02-14 03:40:00,26.8,25.6,29.53,NNW,346,0.0,0.0,95,0.00,,SKC,0.00,VWS V14.01,2013-02-14 09:40:00,
2013-02-14 03:42:00,28.0,27.3,29.53,ENE,68,0.0,0.0,97,0.00,,SKC,0.00,VWS V14.01,2013-02-14 09:42:00,
2013-02-14 03:45:00,26.7,25.5,29.54,North,355,0.0,0.0,95,0.00,,SKC,0.00,VWS V14.01,2013-02-14 09:45:00,
2013-02-14 03:47:00,27.9,26.9,29.53,ENE,68,0.0,0.0,96,0.00,,SKC,0.00,VWS V14.01,2013-02-14 09:47:00,
2013-02-14 03:50:00,26.7,25.5,29.54,ENE,63,0.0,0.0,95,0.00,,SKC,0.00,VWS V14.01,2013-02-14 09:50:00,
2013-02-14 03:52:00,27.8,26.8,29.53,NNE,17,0.0,0.0,96,0.00,,SKC,0.00,VWS V14.01,2013-02-14 09:52:00,
2013-02-14 03:55:00,26.6,25.4,29.54,NNE,27,0.0,0.0,95,0.00,,SKC,0.00,VWS V14.01,2013-02-14 09:55:00,
2013-02-14 03:57:00,27.7,26.7,29.53,North,10,0.0,0.0,96,0.00,,SKC,0.00,VWS V14.01,2013-02-14 09:57:00,
2013-02-14 04:00:00,26.6,25.4,29.55,ENE,66,0.0,0.0,95,0.00,,SKC,0.00,VWS V14.01,2013-02-14 10:00:00,
2013-02-14 04:02:00,27.6,26.6,29.53,NNE,22,0.0,0.0,96,0.00,,SKC,0.00,VWS V14.01,2013-02-14 10:02:00,
2013-02-14 04:05:00,26.6,25.4,29.55,West,263,0.0,0.0,95,0.00,,SKC,0.00,VWS V14.01,2013-02-14 10:05:00,
2013-02-14 04:07:00,27.5,26.5,29.53,WNW,296,0.0,0.0,96,0.00,,SKC,0.00,VWS V14.01,2013-02-14 10:07:00,
2013-02-14 04:10:00,26.5,25.3,29.55,North,351,0.0,0.0,95,0.00,,SKC,0.00,VWS V14.01,2013-02-14 10:10:00,
2013-02-14 04:12:00,27.4,26.4,29.53,WSW,250,0.0,0.0,96,0.00,,SKC,0.00,VWS V14.01,2013-02-14 10:12:00,
2013-02-14 04:15:00,26.5,25.3,29.55,East,80,0.0,0.0,95,0.00,,SKC,0.00,VWS V14.01,2013-02-14 10:15:00,
2013-02-14 04:17:00,27.3,26.3,29.53,West,281,0.0,0.0,96,0.00,,SKC,0.00,VWS V14.01,2013-02-14 10:17:00,
2013-02-14 04:20:00,26.5,25.3,29.55,NNW,331,0.0,0.0,95,0.00,,SKC,0.00,VWS V14.01,2013-02-14 10:20:00,
2013-02-14 04:22:00,27.2,26.0,29.53,West,262,0.0,0.0,95,0.00,,SKC,0.00,VWS V14.01,2013-02-14 10:22:00,
2013-02-14 04:25:00,26.4,25.2,29.55,NNE,30,0.0,0.0,95,0.00,,SKC,0.00,VWS V14.01,2013-02-14 10:25:00,
2013-02-14 04:27:00,27.0,25.8,29.53,West,277,0.0,0.0,95,0.00,,SKC,0.00,VWS V14.01,2013-02-14 10:27:00,
2013-02-14 04:30:00,26.3,25.1,29.55,NNE,17,0.0,0.0,95,0.00,,SKC,0.00,VWS V14.01,2013-02-14 10:30:00,
2013-02-14 04:32:00,26.9,25.7,29.53,ENE,59,0.0,0.0,95,0.00,,SKC,0.00,VWS V14.01,2013-02-14 10:32:00,
2013-02-14 04:35:00,26.4,25.2,29.55,North,10,0.0,0.0,95,0.00,,SKC,0.00,VWS V14.01,2013-02-14 10:35:00,
2013-02-14 04:37:00,26.8,25.6,29.53,ENE,70,0.0,0.0,95,0.00,,SKC,0.00,VWS V14.01,2013-02-14 10:37:00,
2013-02-14 04:40:00,26.3,25.1,29.55,NE,35,0.0,0.0,95,0.00,,SKC,0.00,VWS V14.01,2013-02-14 10:40:00,
2013-02-14 04:42:00,26.8,25.6,29.53,NNW,346,0.0,0.0,95,0.00,,SKC,0.00,VWS V14.01,2013-02-14 10:42:00,
2013-02-14 04:45:00,26.3,25.1,29.55,West,277,0.0,0.0,95,0.00,,SKC,0.00,VWS V14.01,2013-02-14 10:45:00,
2013-02-14 04:47:00,26.7,25.5,29.54,North,351,0.0,0.0,95,0.00,,SKC,0.00,VWS V14.01,2013-02-14 10:47:00,
2013-02-14 04:50:00,26.2,25.0,29.55,East,84,0.0,0.0,95,0.00,,SKC,0.00,VWS V14.01,2013-02-14 10:50:00,
2013-02-14 04:52:00,26.7,25.5,29.54,ENE,63,0.0,0.0,95,0.00,,SKC,0.00,VWS V14.01,2013-02-14 10:52:00,
2013-02-14 04:55:00,26.1,24.9,29.55,NE,42,0.0,0.0,95,0.00,,SKC,0.00,VWS V14.01,2013-02-14 10:55:00,
2013-02-14 04:57:00,26.6,25.4,29.54,NNE,27,0.0,0.0,95,0.00,,SKC,0.00,VWS V14.01,2013-02-14 10:57:00,
2013-02-14 05:00:00,25.9,24.4,29.56,WNW,287,0.0,0.0,94,0.00,,SKC,0.00,VWS V14.01,2013-02-14 11:00:00,
2013-02-14 05:02:00,26.6,25.4,29.55,ENE,66,0.0,0.0,95,0.00,,SKC,0.00,VWS V14.01,2013-02-14 11:02:00,
2013-02-14 05:05:00,25.8,24.1,29.56,NE,50,0.0,0.0,93,0.00,,SKC,0.00,VWS V14.01,2013-02-14 11:05:00,
2013-02-14 05:07:00,26.6,25.4,29.55,ENE,61,0.0,0.0,95,0.00,,SKC,0.00,VWS V14.01,2013-02-14 11:07:00,
2013-02-14 05:10:00,25.7,24.0,29.56,West,275,0.0,0.0,93,0.00,,SKC,0.00,VWS V14.01,2013-02-14 11:10:00,
2013-02-14 05:12:00,26.5,25.3,29.55,North,351,0.0,0.0,95,0.00,,SKC,0.00,VWS V14.01,2013-02-14 11:12:00,
2013-02-14 05:15:00,25.5,23.8,29.56,West,260,0.0,0.0,93,0.00,,SKC,0.00,VWS V14.01,2013-02-14 11:15:00,
2013-02-14 05:17:00,26.5,25.3,29.55,East,80,0.0,0.0,95,0.00,,SKC,0.00,VWS V14.01,2013-02-14 11:17:00,
2013-02-14 05:20:00,25.4,23.7,29.56,West,265,0.0,0.0,93,0.00,,SKC,0.00,VWS V14.01,2013-02-14 11:20:00,
2013-02-14 05:22:00,26.5,25.3,29.55,NNW,331,0.0,0.0,95,0.00,,SKC,0.00,VWS V14.01,2013-02-14 11:22:00,
2013-02-14 05:25:00,25.4,23.7,29.56,ENE,78,0.0,0.0,93,0.00,,SKC,0.00,VWS V14.01,2013-02-14 11:25:00,
2013-02-14 05:27:00,26.4,25.2,29.55,NNE,31,0.0,0.0,95,0.00,,SKC,0.00,VWS V14.01,2013-02-14 11:27:00,
2013-02-14 05:30:00,25.3,23.6,29.56,NE,34,0.0,0.0,93,0.00,,SKC,0.00,VWS V14.01,2013-02-14 11:30:00,
2013-02-14 05:32:00,26.3,25.1,29.55,NNE,17,0.0,0.0,95,0.00,,SKC,0.00,VWS V14.01,2013-02-14 11:32:00,
2013-02-14 05:35:00,25.3,23.8,29.56,NE,44,0.0,0.0,94,0.00,,SKC,0.00,VWS V14.01,2013-02-14 11:35:00,
2013-02-14 05:37:00,26.3,25.1,29.55,North,11,0.0,0.0,95,0.00,,SKC,0.00,VWS V14.01,2013-02-14 11:37:00,
2013-02-14 05:40:00,25.2,23.7,29.56,WSW,253,0.0,0.0,94,0.00,,SKC,0.00,VWS V14.01,2013-02-14 11:40:00,
2013-02-14 05:42:00,26.3,25.1,29.55,NE,34,0.0,0.0,95,0.00,,SKC,0.00,VWS V14.01,2013-02-14 11:42:00,
2013-02-14 05:45:00,25.1,23.6,29.57,NW,316,0.0,0.0,94,0.00,,SKC,0.00,VWS V14.01,2013-02-14 11:45:00,
2013-02-14 05:47:00,26.3,25.1,29.55,West,277,0.0,0.0,95,0.00,,SKC,0.00,VWS V14.01,2013-02-14 11:47:00,
2013-02-14 05:50:00,25.1,23.6,29.57,NNE,25,0.0,0.0,94,0.00,,SKC,0.00,VWS V14.01,2013-02-14 11:50:00,
2013-02-14 05:52:00,26.2,25.0,29.55,ENE,61,0.0,0.0,95,0.00,,SKC,0.00,VWS V14.01,2013-02-14 11:52:00,
2013-02-14 05:55:00,25.1,23.6,29.57,ENE,78,0.0,0.0,94,0.00,,SKC,0.00,VWS V14.01,2013-02-14 11:55:00,
2013-02-14 05:57:00,26.1,24.9,29.55,NNE,30,0.0,0.0,95,0.00,,SKC,0.00,VWS V14.01,2013-02-14 11:57:00,
2013-02-14 06:00:00,25.0,23.5,29.58,ENE,78,0.0,0.0,94,0.00,,SKC,0.00,VWS V14.01,2013-02-14 12:00:00,
2013-02-14 06:02:00,25.9,24.4,29.56,WNW,294,0.0,0.0,94,0.00,,SKC,0.00,VWS V14.01,2013-02-14 12:02:00,
2013-02-14 06:05:00,25.0,23.5,29.58,NNE,19,0.0,0.0,94,0.00,,SKC,0.00,VWS V14.01,2013-02-14 12:05:00,
2013-02-14 06:07:00,25.8,24.1,29.56,NE,49,0.0,0.0,93,0.00,,SKC,0.00,VWS V14.01,2013-02-14 12:07:00,
2013-02-14 06:10:00,24.9,23.4,29.58,NNW,346,0.0,0.0,94,0.00,,SKC,0.00,VWS V14.01,2013-02-14 12:10:00,
2013-02-14 06:12:00,25.7,24.0,29.56,West,263,0.0,0.0,93,0.00,,SKC,0.00,VWS V14.01,2013-02-14 12:12:00,
2013-02-14 06:15:00,24.9,23.4,29.58,NNW,346,0.0,0.0,94,0.00,,SKC,0.00,VWS V14.01,2013-02-14 12:15:00,
2013-02-14 06:17:00,25.5,23.8,29.56,West,260,0.0,0.0,93,0.00,,SKC,0.00,VWS V14.01,2013-02-14 12:17:00,
2013-02-14 06:20:00,24.9,23.4,29.58,NE,37,0.0,0.0,94,0.00,,SKC,0.00,VWS V14.01,2013-02-14 12:20:00,
2013-02-14 06:22:00,25.4,23.7,29.56,NE,55,0.0,0.0,93,0.00,,SKC,0.00,VWS V14.01,2013-02-14 12:22:00,
2013-02-14 06:25:00,24.8,23.3,29.58,WSW,254,0.0,0.0,94,0.00,,SKC,0.00,VWS V14.01,2013-02-14 12:25:00,
2013-02-14 06:27:00,25.4,23.7,29.56,ENE,78,0.0,0.0,93,0.00,,SKC,0.00,VWS V14.01,2013-02-14 12:27:00,
2013-02-14 06:30:00,24.8,23.3,29.59,West,275,0.0,0.0,94,0.00,,SKC,0.00,VWS V14.01,2013-02-14 12:30:00,
2013-02-14 06:32:00,25.3,23.6,29.56,North,11,0.0,0.0,93,0.00,,SKC,0.00,VWS V14.01,2013-02-14 12:32:00,
2013-02-14 06:35:00,24.9,23.4,29.59,West,275,0.0,0.0,94,0.00,,SKC,0.00,VWS V14.01,2013-02-14 12:35:00,
2013-02-14 06:37:00,25.3,23.8,29.56,NNE,23,0.0,0.0,94,0.00,,SKC,0.00,VWS V14.01,2013-02-14 12:37:00,
2013-02-14 06:40:00,24.8,23.3,29.59,NNE,13,0.0,0.0,94,0.00,,SKC,0.00,VWS V14.01,2013-02-14 12:40:00,
2013-02-14 06:42:00,25.2,23.7,29.56,WSW,253,0.0,0.0,94,0.00,,SKC,0.00,VWS V14.01,2013-02-14 12:42:00,
2013-02-14 06:45:00,24.9,23.4,29.59,ENE,59,0.0,0.0,94,0.00,,SKC,0.00,VWS V14.01,2013-02-14 12:45:00,
2013-02-14 06:47:00,25.1,23.6,29.57,NW,316,0.0,0.0,94,0.00,,SKC,0.00,VWS V14.01,2013-02-14 12:47:00,
2013-02-14 06:50:00,25.0,23.5,29.59,WNW,296,0.0,0.0,94,0.00,,SKC,0.00,VWS V14.01,2013-02-14 12:50:00,
2013-02-14 06:52:00,25.1,23.6,29.57,NNE,26,0.0,0.0,94,0.00,,SKC,0.00,VWS V14.01,2013-02-14 12:52:00,
2013-02-14 06:55:00,25.0,23.5,29.59,NE,47,0.0,0.0,94,0.00,,SKC,0.00,VWS V14.01,2013-02-14 12:55:00,
2013-02-14 06:57:00,25.1,23.6,29.57,ENE,78,0.0,0.0,94,0.00,,SKC,0.00,VWS V14.01,2013-02-14 12:57:00,
2013-02-14 07:00:00,25.0,23.5,29.60,WNW,286,0.0,0.0,94,0.00,,SKC,0.00,VWS V14.01,2013-02-14 13:00:00,
2013-02-14 07:03:00,25.0,23.5,29.58,ENE,69,0.0,0.0,94,0.00,,SKC,0.00,VWS V14.01,2013-02-14 13:03:00,
2013-02-14 07:05:00,25.0,23.5,29.60,WNW,291,0.0,0.0,94,0.00,,SKC,0.00,VWS V14.01,2013-02-14 13:05:00,
2013-02-14 07:08:00,24.9,23.4,29.58,NNE,19,0.0,0.0,94,0.00,,SKC,0.00,VWS V14.01,2013-02-14 13:08:00,
2013-02-14 07:10:00,25.1,23.6,29.60,WNW,292,0.0,0.0,94,0.00,,SKC,0.00,VWS V14.01,2013-02-14 13:10:00,
2013-02-14 07:13:00,24.9,23.4,29.58,NNW,346,0.0,0.0,94,0.00,,SKC,0.00,VWS V14.01,2013-02-14 13:13:00,
2013-02-14 07:15:00,25.2,23.5,29.61,WNW,291,0.0,0.0,93,0.00,,SKC,0.00,VWS V14.01,2013-02-14 13:15:00,
2013-02-14 07:18:00,24.9,23.4,29.58,NNW,346,0.0,0.0,94,0.00,,SKC,0.00,VWS V14.01,2013-02-14 13:18:00,
2013-02-14 07:20:00,25.2,23.5,29.61,WNW,292,0.0,0.0,93,0.00,,SKC,0.00,VWS V14.01,2013-02-14 13:20:00,
2013-02-14 07:23:00,24.9,23.4,29.58,West,264,0.0,0.0,94,0.00,,SKC,0.00,VWS V14.01,2013-02-14 13:23:00,
2013-02-14 07:25:00,25.2,23.5,29.61,NNW,329,0.0,0.0,93,0.00,,SKC,0.00,VWS V14.01,2013-02-14 13:25:00,
2013-02-14 07:28:00,24.9,23.4,29.58,WSW,254,0.0,0.0,94,0.00,,SKC,0.00,VWS V14.01,2013-02-14 13:28:00,
2013-02-14 07:30:00,25.2,23.5,29.61,West,276,0.0,0.0,93,0.00,,SKC,0.00,VWS V14.01,2013-02-14 13:30:00,
2013-02-14 07:33:00,24.8,23.3,29.59,West,275,0.0,0.0,94,0.00,,SKC,0.00,VWS V14.01,2013-02-14 13:33:00,
2013-02-14 07:35:00,25.3,23.6,29.61,West,277,0.0,0.0,93,0.00,,SKC,0.00,VWS V14.01,2013-02-14 13:35:00,
2013-02-14 07:38:00,24.8,23.3,29.59,West,274,0.0,0.0,94,0.00,,SKC,0.00,VWS V14.01,2013-02-14 13:38:00,
2013-02-14 07:40:00,25.4,23.7,29.61,West,277,0.0,0.0,93,0.00,,SKC,0.00,VWS V14.01,2013-02-14 13:40:00,
2013-02-14 07:43:00,24.8,23.3,29.59,NE,46,0.0,0.0,94,0.00,,SKC,0.00,VWS V14.01,2013-02-14 13:43:00,
2013-02-14 07:45:00,25.6,23.9,29.61,West,272,0.0,0.0,93,0.00,,SKC,0.00,VWS V14.01,2013-02-14 13:45:00,
2013-02-14 07:48:00,24.9,23.4,29.59,ENE,59,0.0,0.0,94,0.00,,SKC,0.00,VWS V14.01,2013-02-14 13:48:00,
2013-02-14 07:50:00,25.8,24.1,29.61,NE,40,0.0,0.0,93,0.00,,SKC,0.00,VWS V14.01,2013-02-14 13:50:00,
2013-02-14 07:53:00,25.0,23.5,29.59,WNW,282,0.0,0.0,94,0.00,,SKC,0.00,VWS V14.01,2013-02-14 13:53:00,
2013-02-14 07:55:00,26.0,24.0,29.61,West,260,0.0,0.0,92,0.00,,SKC,0.00,VWS V14.01,2013-02-14 13:55:00,
2013-02-14 07:58:00,25.0,23.5,29.59,West,264,0.0,0.0,94,0.00,,SKC,0.00,VWS V14.01,2013-02-14 13:58:00,
2013-02-14 08:00:00,26.2,24.2,29.61,NE,49,0.0,0.0,92,0.00,,SKC,0.00,VWS V14.01,2013-02-14 14:00:00,
2013-02-14 08:03:00,25.0,23.5,29.60,West,267,0.0,0.0,94,0.00,,SKC,0.00,VWS V14.01,2013-02-14 14:03:00,
2013-02-14 08:05:00,26.3,24.0,29.61,West,261,0.0,0.0,91,0.00,,SKC,0.00,VWS V14.01,2013-02-14 14:05:00,
2013-02-14 08:08:00,25.0,23.5,29.60,WNW,291,0.0,0.0,94,0.00,,SKC,0.00,VWS V14.01,2013-02-14 14:08:00,
2013-02-14 08:10:00,26.5,24.2,29.61,NNW,338,0.0,0.0,91,0.00,,SKC,0.00,VWS V14.01,2013-02-14 14:10:00,
2013-02-14 08:13:00,25.1,23.6,29.60,WNW,292,0.0,0.0,94,0.00,,SKC,0.00,VWS V14.01,2013-02-14 14:13:00,
2013-02-14 08:15:00,26.6,24.3,29.61,NE,55,0.0,0.0,91,0.00,,SKC,0.00,VWS V14.01,2013-02-14 14:15:00,
2013-02-14 08:18:00,25.2,23.7,29.61,West,268,0.0,0.0,94,0.00,,SKC,0.00,VWS V14.01,2013-02-14 14:18:00,
2013-02-14 08:20:00,26.5,24.2,29.61,NNW,340,0.0,0.0,91,0.00,,SKC,0.00,VWS V14.01,2013-02-14 14:20:00,
2013-02-14 08:23:00,25.2,23.5,29.61,West,268,0.0,0.0,93,0.00,,SKC,0.00,VWS V14.01,2013-02-14 14:23:00,
2013-02-14 08:25:00,26.5,24.5,29.61,WSW,242,0.0,0.0,92,0.00,,SKC,0.00,VWS V14.01,2013-02-14 14:25:00,
2013-02-14 08:28:00,25.3,23.6,29.61,West,268,0.0,0.0,93,0.00,,SKC,0.00,VWS V14.01,2013-02-14 14:28:00,
2013-02-14 08:30:00,26.7,24.7,29.62,NNE,28,0.0,0.0,92,0.00,,SKC,0.00,VWS V14.01,2013-02-14 14:30:00,
2013-02-14 08:33:00,25.2,23.5,29.61,West,276,0.0,0.0,93,0.00,,SKC,0.00,VWS V14.01,2013-02-14 14:33:00,
2013-02-14 08:35:00,26.9,24.6,29.62,East,91,0.0,0.0,91,0.00,,SKC,0.00,VWS V14.01,2013-02-14 14:35:00,
2013-02-14 08:38:00,25.3,23.6,29.61,West,270,0.0,0.0,93,0.00,,SKC,0.00,VWS V14.01,2013-02-14 14:38:00,
2013-02-14 08:40:00,27.0,24.7,29.62,NNE,12,0.0,0.0,91,0.00,,SKC,0.00,VWS V14.01,2013-02-14 14:40:00,
2013-02-14 08:43:00,25.5,23.8,29.61,West,277,0.0,0.0,93,0.00,,SKC,0.00,VWS V14.01,2013-02-14 14:43:00,
2013-02-14 08:45:00,27.3,25.0,29.62,West,269,0.0,0.0,91,0.00,,SKC,0.00,VWS V14.01,2013-02-14 14:45:00,
2013-02-14 08:48:00,25.7,24.0,29.61,West,279,0.0,0.0,93,0.00,,SKC,0.00,VWS V14.01,2013-02-14 14:48:00,
2013-02-14 08:50:00,27.6,25.3,29.62,West,279,0.0,0.0,91,0.00,,SKC,0.00,VWS V14.01,2013-02-14 14:50:00,
2013-02-14 08:53:00,25.8,23.8,29.61,WNW,300,0.0,0.0,92,0.00,,SKC,0.00,VWS V14.01,2013-02-14 14:53:00,
2013-02-14 08:55:00,27.5,25.0,29.62,WNW,290,0.0,0.0,90,0.00,,SKC,0.00,VWS V14.01,2013-02-14 14:55:00,
2013-02-14 08:58:00,26.1,24.1,29.61,West,279,0.0,0.0,92,0.00,,SKC,0.00,VWS V14.01,2013-02-14 14:58:00,
2013-02-14 09:00:00,27.6,25.1,29.62,WSW,257,0.0,0.0,90,0.00,,SKC,0.00,VWS V14.01,2013-02-14 15:00:00,
2013-02-14 09:03:00,26.2,24.2,29.61,NW,305,0.0,0.0,92,0.00,,SKC,0.00,VWS V14.01,2013-02-14 15:03:00,
2013-02-14 09:05:00,28.0,25.5,29.62,NE,34,0.0,0.0,90,0.00,,SKC,0.00,VWS V14.01,2013-02-14 15:05:00,
2013-02-14 09:08:00,26.3,24.0,29.61,West,280,0.0,0.0,91,0.00,,SKC,0.00,VWS V14.01,2013-02-14 15:08:00,
2013-02-14 09:10:00,28.1,25.3,29.62,NE,49,0.0,0.0,89,0.00,,SKC,0.00,VWS V14.01,2013-02-14 15:10:00,
2013-02-14 09:14:00,26.5,24.2,29.61,NW,306,0.0,0.0,91,0.00,,SKC,0.00,VWS V14.01,2013-02-14 15:14:00,
2013-02-14 09:15:00,28.2,25.4,29.62,NE,44,0.0,0.0,89,0.00,,SKC,0.00,VWS V14.01,2013-02-14 15:15:00,
2013-02-14 09:19:00,26.5,24.2,29.61,West,273,0.0,0.0,91,0.00,,SKC,0.00,VWS V14.01,2013-02-14 15:19:00,
2013-02-14 09:20:00,28.5,25.7,29.62,NNW,338,0.0,0.0,89,0.00,,SKC,0.00,VWS V14.01,2013-02-14 15:20:00,
2013-02-14 09:24:00,26.5,24.2,29.61,WNW,286,0.0,0.0,91,0.00,,SKC,0.00,VWS V14.01,2013-02-14 15:24:00,
2013-02-14 09:25:00,28.7,25.6,29.62,West,276,0.0,0.0,88,0.00,,SKC,0.00,VWS V14.01,2013-02-14 15:25:00,
2013-02-14 09:29:00,26.6,24.6,29.61,East,82,0.0,0.0,92,0.00,,SKC,0.00,VWS V14.01,2013-02-14 15:29:00,
2013-02-14 09:30:00,28.6,25.5,29.62,SW,215,0.0,0.0,88,0.00,,SKC,0.00,VWS V14.01,2013-02-14 15:30:00,
2013-02-14 09:34:00,26.7,24.7,29.62,East,98,0.0,0.0,92,0.00,,SKC,0.00,VWS V14.01,2013-02-14 15:34:00,
2013-02-14 09:35:00,28.7,25.6,29.62,WNW,283,0.0,0.0,88,0.00,,SKC,0.00,VWS V14.01,2013-02-14 15:35:00,
2013-02-14 09:39:00,26.9,24.6,29.62,NW,325,0.0,0.0,91,0.00,,SKC,0.00,VWS V14.01,2013-02-14 15:39:00,
2013-02-14 09:40:00,28.6,25.5,29.62,West,273,0.0,0.0,88,0.00,,SKC,0.00,VWS V14.01,2013-02-14 15:40:00,
2013-02-14 09:44:00,27.1,24.8,29.62,WNW,292,0.0,0.0,91,0.00,,SKC,0.00,VWS V14.01,2013-02-14 15:44:00,
2013-02-14 09:45:00,28.6,25.5,29.63,West,261,0.0,0.0,88,0.00,,SKC,0.00,VWS V14.01,2013-02-14 15:45:00,
2013-02-14 09:49:00,27.5,25.2,29.62,West,269,0.0,0.0,91,0.00,,SKC,0.00,VWS V14.01,2013-02-14 15:49:00,
2013-02-14 09:50:00,28.4,25.0,29.63,WNW,286,0.0,0.0,87,0.00,,SKC,0.00,VWS V14.01,2013-02-14 15:50:00,
2013-02-14 09:54:00,27.6,25.1,29.62,NE,36,0.0,0.0,90,0.00,,SKC,0.00,VWS V14.01,2013-02-14 15:54:00,
2013-02-14 09:55:00,28.4,25.3,29.63,NNE,12,0.0,0.0,88,0.00,,SKC,0.00,VWS V14.01,2013-02-14 15:55:00,
2013-02-14 09:59:00,27.5,25.0,29.62,ENE,61,0.0,0.0,90,0.00,,SKC,0.00,VWS V14.01,2013-02-14 15:59:00,
2013-02-14 10:00:00,28.5,25.4,29.63,West,271,0.0,0.0,88,0.00,,SKC,0.00,VWS V14.01,2013-02-14 16:00:00,
2013-02-14 10:04:00,27.8,25.2,29.62,WSW,257,0.0,0.0,90,0.00,,SKC,0.00,VWS V14.01,2013-02-14 16:04:00,
2013-02-14 10:05:00,28.5,25.1,29.63,WSW,254,0.0,0.0,87,0.00,,SKC,0.00,VWS V14.01,2013-02-14 16:05:00,
2013-02-14 10:09:00,28.0,25.2,29.62,ENE,75,0.0,0.0,89,0.00,,SKC,0.00,VWS V14.01,2013-02-14 16:09:00,
2013-02-14 10:10:00,28.6,25.2,29.63,WNW,302,0.0,0.0,87,0.00,,SKC,0.00,VWS V14.01,2013-02-14 16:10:00,
2013-02-14 10:14:00,28.1,25.3,29.62,WNW,291,0.0,0.0,89,0.00,,SKC,0.00,VWS V14.01,2013-02-14 16:14:00,
2013-02-14 10:15:00,28.8,25.7,29.64,WNW,296,0.0,0.0,88,0.00,,SKC,0.00,VWS V14.01,2013-02-14 16:15:00,
2013-02-14 10:19:00,28.3,25.5,29.62,NE,44,0.0,0.0,89,0.00,,SKC,0.00,VWS V14.01,2013-02-14 16:19:00,
2013-02-14 10:20:00,28.8,25.4,29.64,West,269,0.0,0.0,87,0.00,,SKC,0.00,VWS V14.01,2013-02-14 16:20:00,
2013-02-14 10:24:00,28.6,25.8,29.62,West,267,0.0,0.0,89,0.00,,SKC,0.00,VWS V14.01,2013-02-14 16:24:00,
2013-02-14 10:25:00,28.5,25.1,29.64,West,263,0.0,0.0,87,0.00,,SKC,0.00,VWS V14.01,2013-02-14 16:25:00,
2013-02-14 10:29:00,28.7,25.6,29.62,West,281,0.0,0.0,88,0.00,,SKC,0.00,VWS V14.01,2013-02-14 16:29:00,
2013-02-14 10:30:00,28.6,25.5,29.64,WNW,282,0.0,0.0,88,0.00,,SKC,0.00,VWS V14.01,2013-02-14 16:30:00,
2013-02-14 10:34:00,28.7,25.6,29.62,West,277,0.0,0.0,88,0.00,,SKC,0.00,VWS V14.01,2013-02-14 16:34:00,
2013-02-14 10:35:00,28.6,25.5,29.64,West,268,0.0,0.0,88,0.00,,SKC,0.00,VWS V14.01,2013-02-14 16:35:00,
2013-02-14 10:39:00,28.7,25.3,29.62,West,276,0.0,0.0,87,0.00,,SKC,0.00,VWS V14.01,2013-02-14 16:39:00,
2013-02-14 10:40:00,28.6,25.5,29.64,NNW,341,0.0,0.0,88,0.00,,SKC,0.00,VWS V14.01,2013-02-14 16:40:00,
2013-02-14 10:44:00,28.7,25.6,29.62,West,275,0.0,0.0,88,0.00,,SKC,0.00,VWS V14.01,2013-02-14 16:44:00,
2013-02-14 10:45:00,28.6,25.5,29.64,NNE,22,0.0,0.0,88,0.00,,SKC,0.00,VWS V14.01,2013-02-14 16:45:00,
2013-02-14 10:49:00,28.6,25.2,29.63,NW,304,0.0,0.0,87,0.00,,SKC,0.00,VWS V14.01,2013-02-14 16:49:00,
2013-02-14 10:50:00,28.5,25.4,29.64,WNW,302,0.0,0.0,88,0.00,,SKC,0.00,VWS V14.01,2013-02-14 16:50:00,
2013-02-14 10:54:00,28.4,25.3,29.63,WNW,284,0.0,0.0,88,0.00,,SKC,0.00,VWS V14.01,2013-02-14 16:54:00,
2013-02-14 10:55:00,28.4,25.6,29.64,West,269,0.0,0.0,89,0.00,,SKC,0.00,VWS V14.01,2013-02-14 16:55:00,
2013-02-14 10:59:00,28.4,25.3,29.63,WNW,299,0.0,0.0,88,0.00,,SKC,0.00,VWS V14.01,2013-02-14 16:59:00,
2013-02-14 11:00:00,28.5,25.7,29.64,WNW,297,0.0,0.0,89,0.00,,SKC,0.00,VWS V14.01,2013-02-14 17:00:00,
2013-02-14 11:04:00,28.5,25.1,29.63,NE,41,0.0,0.0,87,0.00,,SKC,0.00,VWS V14.01,2013-02-14 17:04:00,
2013-02-14 11:05:00,28.5,25.4,29.64,NNE,20,0.0,0.0,88,0.00,,SKC,0.00,VWS V14.01,2013-02-14 17:05:00,
2013-02-14 11:09:00,28.5,25.4,29.63,West,279,0.0,0.0,88,0.00,,SKC,0.00,VWS V14.01,2013-02-14 17:09:00,
2013-02-14 11:10:00,28.6,25.8,29.64,NE,48,0.0,0.0,89,0.00,,SKC,0.00,VWS V14.01,2013-02-14 17:10:00,
2013-02-14 11:14:00,28.6,25.5,29.63,NW,317,0.0,0.0,88,0.00,,SKC,0.00,VWS V14.01,2013-02-14 17:14:00,
2013-02-14 11:15:00,28.6,25.5,29.64,SSW,213,0.0,0.0,88,0.00,,SKC,0.00,VWS V14.01,2013-02-14 17:15:00,
2013-02-14 11:19:00,28.9,25.8,29.64,West,268,0.0,0.0,88,0.00,,SKC,0.00,VWS V14.01,2013-02-14 17:19:00,
2013-02-14 11:20:00,28.6,25.5,29.64,West,281,0.0,0.0,88,0.00,,SKC,0.00,VWS V14.01,2013-02-14 17:20:00,
2013-02-14 11:24:00,28.6,25.2,29.64,SW,233,0.0,0.0,87,0.00,,SKC,0.00,VWS V14.01,2013-02-14 17:24:00,
2013-02-14 11:25:00,28.5,25.4,29.64,WSW,237,0.0,0.0,88,0.00,,SKC,0.00,VWS V14.01,2013-02-14 17:25:00,
2013-02-14 11:29:00,28.5,25.1,29.64,WNW,291,0.0,0.0,87,0.00,,SKC,0.00,VWS V14.01,2013-02-14 17:29:00,
2013-02-14 11:30:00,28.6,25.2,29.64,WNW,302,0.0,0.0,87,0.00,,SKC,0.00,VWS V14.01,2013-02-14 17:30:00,
2013-02-14 11:34:00,28.6,25.5,29.64,WNW,288,0.0,0.0,88,0.00,,SKC,0.00,VWS V14.01,2013-02-14 17:34:00,
2013-02-14 11:35:00,28.7,25.3,29.64,WNW,282,0.0,0.0,87,0.00,,SKC,0.00,VWS V14.01,2013-02-14 17:35:00,
2013-02-14 11:39:00,28.6,25.8,29.64,WNW,284,0.0,0.0,89,0.00,,SKC,0.00,VWS V14.01,2013-02-14 17:39:00,
2013-02-14 11:40:00,28.8,25.1,29.64,NE,53,0.0,0.0,86,0.00,,SKC,0.00,VWS V14.01,2013-02-14 17:40:00,
2013-02-14 11:44:00,28.6,25.5,29.64,WNW,302,0.0,0.0,88,0.00,,SKC,0.00,VWS V14.01,2013-02-14 17:44:00,
2013-02-14 11:45:00,28.9,25.2,29.64,WSW,254,0.0,0.0,86,0.00,,SKC,0.00,VWS V14.01,2013-02-14 17:45:00,
2013-02-14 11:49:00,28.6,25.5,29.64,NW,306,0.0,0.0,88,0.00,,SKC,0.00,VWS V14.01,2013-02-14 17:49:00,
2013-02-14 11:50:00,29.0,25.3,29.64,SW,236,0.0,0.0,86,0.00,,SKC,0.00,VWS V14.01,2013-02-14 17:50:00,
2013-02-14 11:54:00,28.4,25.3,29.64,WNW,284,0.0,0.0,88,0.00,,SKC,0.00,VWS V14.01,2013-02-14 17:54:00,
2013-02-14 11:55:00,29.0,25.1,29.64,West,269,0.0,0.0,85,0.00,,SKC,0.00,VWS V14.01,2013-02-14 17:55:00,
2013-02-14 11:59:00,28.4,25.6,29.64,WSW,256,0.0,0.0,89,0.00,,SKC,0.00,VWS V14.01,2013-02-14 17:59:00,
2013-02-14 12:00:00,28.9,25.0,29.65,NNW,341,0.0,0.0,85,0.00,,SKC,0.00,VWS V14.01,2013-02-14 18:00:00,
2013-02-14 12:04:00,28.4,25.3,29.64,West,265,0.0,0.0,88,0.00,,SKC,0.00,VWS V14.01,2013-02-14 18:04:00,
2013-02-14 12:05:00,28.8,24.6,29.65,West,261,0.0,0.0,84,0.00,,SKC,0.00,VWS V14.01,2013-02-14 18:05:00,
2013-02-14 12:09:00,28.5,25.4,29.64,NE,38,0.0,0.0,88,0.00,,SKC,0.00,VWS V14.01,2013-02-14 18:09:00,
2013-02-14 12:10:00,28.7,24.5,29.65,WNW,291,0.0,0.0,84,0.00,,SKC,0.00,VWS V14.01,2013-02-14 18:10:00,
2013-02-14 12:14:00,28.6,25.5,29.64,ENE,62,0.0,0.0,88,0.00,,SKC,0.00,VWS V14.01,2013-02-14 18:14:00,
2013-02-14 12:15:00,28.8,24.6,29.66,NW,319,0.0,0.0,84,0.00,,SKC,0.00,VWS V14.01,2013-02-14 18:15:00,
2013-02-14 12:20:00,28.6,25.5,29.64,WNW,300,0.0,0.0,88,0.00,,SKC,0.00,VWS V14.01,2013-02-14 18:20:00,
2013-02-14 12:25:00,28.4,25.0,29.64,NNW,328,0.0,0.0,87,0.00,,SKC,0.00,VWS V14.01,2013-02-14 18:25:00,
2013-02-14 12:30:00,28.5,25.4,29.64,WSW,245,0.0,0.0,88,0.00,,SKC,0.00,VWS V14.01,2013-02-14 18:30:00,
2013-02-14 12:35:00,28.6,25.2,29.64,WSW,245,0.0,0.0,87,0.00,,SKC,0.00,VWS V14.01,2013-02-14 18:35:00,
2013-02-14 12:40:00,28.8,25.4,29.64,West,276,0.0,0.0,87,0.00,,SKC,0.00,VWS V14.01,2013-02-14 18:40:00,
2013-02-14 12:45:00,28.9,25.2,29.64,NW,309,0.0,0.0,86,0.00,,SKC,0.00,VWS V14.01,2013-02-14 18:45:00,
2013-02-14 12:50:00,29.0,25.4,29.64,NNW,343,0.0,0.0,86,0.00,,SKC,0.00,VWS V14.01,2013-02-14 18:50:00,
2013-02-14 12:55:00,29.1,25.4,29.64,West,265,0.0,0.0,86,0.00,,SKC,0.00,VWS V14.01,2013-02-14 18:55:00,
2013-02-14 13:00:00,29.0,25.4,29.64,NW,325,0.0,0.0,86,0.00,,SKC,0.00,VWS V14.01,2013-02-14 19:00:00,
2013-02-14 13:05:00,28.9,25.0,29.65,West,277,0.0,0.0,85,0.00,,SKC,0.00,VWS V14.01,2013-02-14 19:05:00,
2013-02-14 13:10:00,28.7,24.5,29.65,WSW,254,0.0,0.0,84,0.00,,SKC,0.00,VWS V14.01,2013-02-14 19:10:00,
2013-02-14 13:15:00,28.8,24.9,29.65,West,279,0.0,0.0,85,0.00,,SKC,0.00,VWS V14.01,2013-02-14 19:15:00,
2013-02-14 13:20:00,29.0,24.8,29.66,WNW,284,0.0,0.0,84,0.00,,SKC,0.00,VWS V14.01,2013-02-14 19:20:00,
2013-02-14 13:25:00,29.0,24.2,29.66,NW,306,0.0,0.0,82,0.00,,SKC,0.00,VWS V14.01,2013-02-14 19:25:00,
2013-02-14 13:30:00,28.8,24.3,29.66,NNE,19,0.0,0.0,83,0.00,,SKC,0.00,VWS V14.01,2013-02-14 19:30:00,
2013-02-14 13:35:00,28.7,23.9,29.67,NW,319,0.0,0.0,82,0.00,,SKC,0.00,VWS V14.01,2013-02-14 19:35:00,
2013-02-14 13:40:00,28.3,23.8,29.67,WNW,290,0.0,0.0,83,0.00,,SKC,0.00,VWS V14.01,2013-02-14 19:40:00,
2013-02-14 13:45:00,27.9,23.4,29.67,West,279,0.0,0.0,83,0.00,,SKC,0.00,VWS V14.01,2013-02-14 19:45:00,
2013-02-14 13:50:00,27.7,23.5,29.67,NNW,332,0.0,0.0,84,0.00,,SKC,0.00,VWS V14.01,2013-02-14 19:50:00,
2013-02-14 13:55:00,27.7,22.6,29.67,WSW,252,0.0,0.0,81,0.00,,SKC,0.00,VWS V14.01,2013-02-14 19:55:00,
2013-02-14 14:00:00,27.8,22.7,29.67,NE,53,0.0,0.0,81,0.00,,SKC,0.00,VWS V14.01,2013-02-14 20:00:00,
2013-02-14 14:05:00,27.8,22.7,29.69,WNW,283,0.0,0.0,81,0.00,,SKC,0.00,VWS V14.01,2013-02-14 20:05:00,
2013-02-14 14:10:00,27.9,22.8,29.69,NNE,12,0.0,0.0,81,0.00,,SKC,0.00,VWS V14.01,2013-02-14 20:10:00,
2013-02-14 14:15:00,27.8,22.7,29.69,NNE,19,0.0,0.0,81,0.00,,SKC,0.00,VWS V14.01,2013-02-14 20:15:00,
2013-02-14 14:20:00,27.8,22.7,29.69,NNW,327,0.0,0.0,81,0.00,,SKC,0.00,VWS V14.01,2013-02-14 20:20:00,
2013-02-14 14:25:00,27.7,22.0,29.69,North,350,0.0,0.0,79,0.00,,SKC,0.00,VWS V14.01,2013-02-14 20:25:00,
2013-02-14 14:30:00,27.7,22.6,29.69,NW,323,0.0,0.0,81,0.00,,SKC,0.00,VWS V14.01,2013-02-14 20:30:00,
2013-02-14 14:35:00,27.5,21.9,29.70,NNW,340,0.0,0.0,79,0.00,,SKC,0.00,VWS V14.01,2013-02-14 20:35:00,
2013-02-14 14:40:00,27.0,21.4,29.70,NE,51,0.0,0.0,79,0.00,,SKC,0.00,VWS V14.01,2013-02-14 20:40:00,
2013-02-14 14:45:00,26.8,21.8,29.70,NNW,331,0.0,0.0,81,0.00,,SKC,0.00,VWS V14.01,2013-02-14 20:45:00,
2013-02-14 14:50:00,26.7,21.7,29.71,WSW,256,0.0,0.0,81,0.00,,SKC,0.00,VWS V14.01,2013-02-14 20:50:00,
2013-02-14 14:55:00,26.6,21.3,29.71,NNW,338,0.0,0.0,80,0.00,,SKC,0.00,VWS V14.01,2013-02-14 20:55:00,
2013-02-14 15:00:00,26.5,21.2,29.71,WNW,302,0.0,0.0,80,0.00,,SKC,0.00,VWS V14.01,2013-02-14 21:00:00,
2013-02-14 15:05:00,26.4,21.1,29.72,ENE,68,0.0,0.0,80,0.00,,SKC,0.00,VWS V14.01,2013-02-14 21:05:00,
2013-02-14 15:10:00,26.3,21.0,29.72,WNW,297,0.0,0.0,80,0.00,,SKC,0.00,VWS V14.01,2013-02-14 21:10:00,
2013-02-14 15:15:00,26.2,20.9,29.72,ESE,123,0.0,0.0,80,0.00,,SKC,0.00,VWS V14.01,2013-02-14 21:15:00,
2013-02-14 15:20:00,26.1,21.1,29.73,WSW,244,0.0,0.0,81,0.00,,SKC,0.00,VWS V14.01,2013-02-14 21:20:00,
2013-02-14 15:25:00,26.0,21.0,29.73,NNE,29,0.0,0.0,81,0.00,,SKC,0.00,VWS V14.01,2013-02-14 21:25:00,
2013-02-14 15:30:00,25.8,20.5,29.73,West,272,0.0,0.0,80,0.00,,SKC,0.00,VWS V14.01,2013-02-14 21:30:00,
2013-02-14 15:35:00,25.7,21.0,29.74,NW,309,0.0,0.0,82,0.00,,SKC,0.00,VWS V14.01,2013-02-14 21:35:00,
2013-02-14 15:40:00,25.6,20.6,29.74,WNW,285,0.0,0.0,81,0.00,,SKC,0.00,VWS V14.01,2013-02-14 21:40:00,
2013-02-14 15:45:00,22.8,18.1,29.79,NNE,27,0.0,0.0,82,0.00,,SKC,0.00,VWS V14.01,2013-02-14 21:45:00,
2013-02-14 15:46:00,25.5,20.5,29.74,WSW,254,0.0,0.0,81,0.00,,SKC,0.00,VWS V14.01,2013-02-14 21:46:00,
2013-02-14 15:50:00,22.6,18.2,29.79,West,271,0.0,0.0,83,0.00,,SKC,0.00,VWS V14.01,2013-02-14 21:50:00,
2013-02-14 15:51:00,25.3,20.0,29.75,West,277,0.0,0.0,80,0.00,,SKC,0.00,VWS V14.01,2013-02-14 21:51:00,
2013-02-14 15:55:00,22.5,18.1,29.79,ENE,69,0.0,0.0,83,0.00,,SKC,0.00,VWS V14.01,2013-02-14 21:55:00,
2013-02-14 15:56:00,25.1,20.1,29.75,NNW,348,0.0,0.0,81,0.00,,SKC,0.00,VWS V14.01,2013-02-14 21:56:00,
2013-02-14 16:00:00,22.3,17.9,29.80,NNE,22,0.0,0.0,83,0.00,,SKC,0.00,VWS V14.01,2013-02-14 22:00:00,
2013-02-14 16:01:00,24.9,19.6,29.75,WNW,285,0.0,0.0,80,0.00,,SKC,0.00,VWS V14.01,2013-02-14 22:01:00,
2013-02-14 16:05:00,22.1,17.7,29.80,NNW,344,0.0,0.0,83,0.00,,SKC,0.00,VWS V14.01,2013-02-14 22:05:00,
2013-02-14 16:06:00,24.6,19.0,29.76,WNW,302,0.0,0.0,79,0.00,,SKC,0.00,VWS V14.01,2013-02-14 22:06:00,
2013-02-14 16:10:00,21.9,17.8,29.80,ENE,63,0.0,0.0,84,0.00,,SKC,0.00,VWS V14.01,2013-02-14 22:10:00,
2013-02-14 16:11:00,24.2,18.6,29.76,West,260,0.0,0.0,79,0.00,,SKC,0.00,VWS V14.01,2013-02-14 22:11:00,
2013-02-14 16:15:00,21.6,17.2,29.81,West,276,0.0,0.0,83,0.00,,SKC,0.00,VWS V14.01,2013-02-14 22:15:00,
2013-02-14 16:16:00,23.9,18.9,29.76,West,280,0.0,0.0,81,0.00,,SKC,0.00,VWS V14.01,2013-02-14 22:16:00,
2013-02-14 16:20:00,21.4,17.3,29.81,West,280,0.0,0.0,84,0.00,,SKC,0.00,VWS V14.01,2013-02-14 22:20:00,
2013-02-14 16:21:00,23.8,18.8,29.77,West,279,0.0,0.0,81,0.00,,SKC,0.00,VWS V14.01,2013-02-14 22:21:00,
2013-02-14 16:25:00,21.3,17.5,29.81,West,279,0.0,0.0,85,0.00,,SKC,0.00,VWS V14.01,2013-02-14 22:25:00,
2013-02-14 16:26:00,23.5,18.5,29.77,West,263,0.0,0.0,81,0.00,,SKC,0.00,VWS V14.01,2013-02-14 22:26:00,
2013-02-14 16:30:00,21.1,17.0,29.82,SW,230,0.0,0.0,84,0.00,,SKC,0.00,VWS V14.01,2013-02-14 22:30:00,
2013-02-14 16:31:00,23.3,18.3,29.77,West,275,0.0,0.0,81,0.00,,SKC,0.00,VWS V14.01,2013-02-14 22:31:00,
2013-02-14 16:35:00,21.0,17.2,29.82,South,183,0.0,0.0,85,0.00,,SKC,0.00,VWS V14.01,2013-02-14 22:35:00,
2013-02-14 16:36:00,23.2,18.5,29.78,ENE,71,0.0,0.0,82,0.00,,SKC,0.00,VWS V14.01,2013-02-14 22:36:00,
2013-02-14 16:40:00,20.8,17.0,29.82,NNW,348,0.0,0.0,85,0.00,,SKC,0.00,VWS V14.01,2013-02-14 22:40:00,
2013-02-14 16:41:00,23.0,18.3,29.78,WNW,299,0.0,0.0,82,0.00,,SKC,0.00,VWS V14.01,2013-02-14 22:41:00,
2013-02-14 16:45:00,20.7,16.9,29.83,West,279,0.0,0.0,85,0.00,,SKC,0.00,VWS V14.01,2013-02-14 22:45:00,
2013-02-14 16:46:00,22.8,18.1,29.78,West,277,0.0,0.0,82,0.00,,SKC,0.00,VWS V14.01,2013-02-14 22:46:00,
2013-02-14 16:50:00,20.5,16.7,29.83,NW,317,0.0,0.0,85,0.00,,SKC,0.00,VWS V14.01,2013-02-14 22:50:00,
2013-02-14 16:51:00,22.6,17.9,29.79,NW,307,0.0,0.0,82,0.00,,SKC,0.00,VWS V14.01,2013-02-14 22:51:00,
2013-02-14 16:55:00,20.4,16.9,29.83,WSW,257,0.0,0.0,86,0.00,,SKC,0.00,VWS V14.01,2013-02-14 22:55:00,
2013-02-14 16:56:00,22.5,18.1,29.79,West,280,0.0,0.0,83,0.00,,SKC,0.00,VWS V14.01,2013-02-14 22:56:00,
2013-02-14 17:00:00,20.3,17.1,29.84,SSE,158,0.0,0.0,87,0.00,,SKC,0.00,VWS V14.01,2013-02-14 23:00:00,
2013-02-14 17:01:00,22.4,18.0,29.79,WNW,301,0.0,0.0,83,0.00,,SKC,0.00,VWS V14.01,2013-02-14 23:01:00,
2013-02-14 17:05:00,20.1,16.9,29.84,West,271,0.0,0.0,87,0.00,,SKC,0.00,VWS V14.01,2013-02-14 23:05:00,
2013-02-14 17:06:00,22.1,17.7,29.80,NNE,17,0.0,0.0,83,0.00,,SKC,0.00,VWS V14.01,2013-02-14 23:06:00,
2013-02-14 17:10:00,20.0,17.0,29.84,West,269,0.0,0.0,88,0.00,,SKC,0.00,VWS V14.01,2013-02-14 23:10:00,
2013-02-14 17:11:00,21.9,17.5,29.80,WNW,289,0.0,0.0,83,0.00,,SKC,0.00,VWS V14.01,2013-02-14 23:11:00,
2013-02-14 17:15:00,19.7,16.2,29.85,WSW,248,0.0,0.0,86,0.00,,SKC,0.00,VWS V14.01,2013-02-14 23:15:00,
2013-02-14 17:16:00,21.7,17.3,29.81,NW,317,0.0,0.0,83,0.00,,SKC,0.00,VWS V14.01,2013-02-14 23:16:00,
2013-02-14 17:20:00,19.4,15.9,29.85,WNW,300,0.0,0.0,86,0.00,,SKC,0.00,VWS V14.01,2013-02-14 23:20:00,
2013-02-14 17:21:00,21.5,17.4,29.81,NNE,19,0.0,0.0,84,0.00,,SKC,0.00,VWS V14.01,2013-02-14 23:21:00,
2013-02-14 17:25:00,19.1,15.3,29.85,West,277,0.0,0.0,85,0.00,,SKC,0.00,VWS V14.01,2013-02-14 23:25:00,
2013-02-14 17:26:00,21.3,17.5,29.81,West,261,0.0,0.0,85,0.00,,SKC,0.00,VWS V14.01,2013-02-14 23:26:00,
2013-02-14 17:30:00,19.0,15.2,29.86,WNW,286,0.0,0.0,85,0.00,,SKC,0.00,VWS V14.01,2013-02-14 23:30:00,
2013-02-14 17:31:00,21.1,17.3,29.82,NW,321,0.0,0.0,85,0.00,,SKC,0.00,VWS V14.01,2013-02-14 23:31:00,
2013-02-14 17:35:00,18.8,14.8,29.86,WNW,286,0.0,0.0,84,0.00,,SKC,0.00,VWS V14.01,2013-02-14 23:35:00,
2013-02-14 17:36:00,21.0,17.2,29.82,WNW,285,0.0,0.0,85,0.00,,SKC,0.00,VWS V14.01,2013-02-14 23:36:00,
2013-02-14 17:40:00,18.7,14.9,29.86,WNW,294,0.0,0.0,85,0.00,,SKC,0.00,VWS V14.01,2013-02-14 23:40:00,
2013-02-14 17:41:00,20.9,17.1,29.82,NNE,17,0.0,0.0,85,0.00,,SKC,0.00,VWS V14.01,2013-02-14 23:41:00,
2013-02-14 17:45:00,18.6,14.6,29.87,West,263,0.0,0.0,84,0.00,,SKC,0.00,VWS V14.01,2013-02-14 23:45:00,
2013-02-14 17:46:00,20.7,16.9,29.83,WNW,284,0.0,0.0,85,0.00,,SKC,0.00,VWS V14.01,2013-02-14 23:46:00,
2013-02-14 17:50:00,18.4,14.4,29.87,West,280,0.0,0.0,84,0.00,,SKC,0.00,VWS V14.01,2013-02-14 23:50:00,
2013-02-14 17:51:00,20.5,16.7,29.83,WSW,250,0.0,0.0,85,0.00,,SKC,0.00,VWS V14.01,2013-02-14 23:51:00,
2013-02-14 17:55:00,18.3,14.3,29.87,West,276,0.0,0.0,84,0.00,,SKC,0.00,VWS V14.01,2013-02-14 23:55:00,
2013-02-14 17:56:00,20.4,16.9,29.83,NW,315,0.0,0.0,86,0.00,,SKC,0.00,VWS V14.01,2013-02-14 23:56:00,
2013-02-14 18:00:00,18.3,14.3,29.88,West,280,0.0,0.0,84,0.00,,SKC,0.00,VWS V14.01,2013-02-15 00:00:00,
2013-02-14 18:01:00,20.3,17.1,29.84,WNW,286,0.0,0.0,87,0.00,,SKC,0.00,VWS V14.01,2013-02-15 00:01:00,
2013-02-14 18:05:00,18.2,14.2,29.88,West,272,0.0,0.0,84,0.00,,SKC,0.00,VWS V14.01,2013-02-15 00:05:00,
2013-02-14 18:06:00,20.2,17.0,29.84,NE,55,0.0,0.0,87,0.00,,SKC,0.00,VWS V14.01,2013-02-15 00:06:00,
2013-02-14 18:10:00,18.1,14.4,29.88,NW,313,0.0,0.0,85,0.00,,SKC,0.00,VWS V14.01,2013-02-15 00:10:00,
2013-02-14 18:11:00,20.0,16.8,29.84,WNW,299,0.0,0.0,87,0.00,,SKC,0.00,VWS V14.01,2013-02-15 00:11:00,
2013-02-14 18:15:00,18.0,14.3,29.88,WNW,292,0.0,0.0,85,0.00,,SKC,0.00,VWS V14.01,2013-02-15 00:15:00,
2013-02-14 18:16:00,19.8,16.6,29.85,WNW,284,0.0,0.0,87,0.00,,SKC,0.00,VWS V14.01,2013-02-15 00:16:00,
2013-02-14 18:20:00,17.9,14.2,29.88,NNW,329,0.0,0.0,85,0.00,,SKC,0.00,VWS V14.01,2013-02-15 00:20:00,
2013-02-14 18:21:00,19.4,15.9,29.85,WSW,250,0.0,0.0,86,0.00,,SKC,0.00,VWS V14.01,2013-02-15 00:21:00,
2013-02-14 18:25:00,17.8,14.1,29.88,West,273,0.0,0.0,85,0.00,,SKC,0.00,VWS V14.01,2013-02-15 00:25:00,
2013-02-14 18:26:00,19.2,15.4,29.85,WNW,289,0.0,0.0,85,0.00,,SKC,0.00,VWS V14.01,2013-02-15 00:26:00,
2013-02-14 18:30:00,17.6,13.9,29.89,West,280,0.0,0.0,85,0.00,,SKC,0.00,VWS V14.01,2013-02-15 00:30:00,
2013-02-14 18:31:00,19.0,15.2,29.86,WNW,286,0.0,0.0,85,0.00,,SKC,0.00,VWS V14.01,2013-02-15 00:31:00,
2013-02-14 18:35:00,17.5,13.8,29.89,West,276,0.0,0.0,85,0.00,,SKC,0.00,VWS V14.01,2013-02-15 00:35:00,
2013-02-14 18:37:00,18.8,14.8,29.86,West,271,0.0,0.0,84,0.00,,SKC,0.00,VWS V14.01,2013-02-15 00:37:00,
2013-02-14 18:40:00,17.3,13.3,29.89,West,279,0.0,0.0,84,0.00,,SKC,0.00,VWS V14.01,2013-02-15 00:40:00,
2013-02-14 18:42:00,18.7,14.9,29.86,WNW,293,0.0,0.0,85,0.00,,SKC,0.00,VWS V14.01,2013-02-15 00:42:00,
2013-02-14 18:45:00,17.1,13.1,29.89,SW,230,0.0,0.0,84,0.00,,SKC,0.00,VWS V14.01,2013-02-15 00:45:00,
2013-02-14 18:47:00,18.6,14.6,29.87,West,265,0.0,0.0,84,0.00,,SKC,0.00,VWS V14.01,2013-02-15 00:47:00,
2013-02-14 18:50:00,17.0,12.7,29.89,WSW,256,0.0,0.0,83,0.00,,SKC,0.00,VWS V14.01,2013-02-15 00:50:00,
2013-02-14 18:52:00,18.4,14.4,29.87,WSW,248,0.0,0.0,84,0.00,,SKC,0.00,VWS V14.01,2013-02-15 00:52:00,
2013-02-14 18:55:00,16.8,12.3,29.89,WNW,283,0.0,0.0,82,0.00,,SKC,0.00,VWS V14.01,2013-02-15 00:55:00,
2013-02-14 18:57:00,18.3,14.3,29.87,WNW,286,0.0,0.0,84,0.00,,SKC,0.00,VWS V14.01,2013-02-15 00:57:00,
2013-02-14 19:00:00,16.6,12.1,29.90,WNW,287,0.0,0.0,82,0.00,,SKC,0.00,VWS V14.01,2013-02-15 01:00:00,
2013-02-14 19:02:00,18.3,14.3,29.88,NE,42,0.0,0.0,84,0.00,,SKC,0.00,VWS V14.01,2013-02-15 01:02:00,
2013-02-14 19:05:00,16.6,12.4,29.90,West,263,0.0,0.0,83,0.00,,SKC,0.00,VWS V14.01,2013-02-15 01:05:00,
2013-02-14 19:07:00,18.2,14.2,29.88,West,272,0.0,0.0,84,0.00,,SKC,0.00,VWS V14.01,2013-02-15 01:07:00,
2013-02-14 19:10:00,16.4,12.1,29.90,West,273,0.0,0.0,83,0.00,,SKC,0.00,VWS V14.01,2013-02-15 01:10:00,
2013-02-14 19:12:00,18.1,14.4,29.88,NW,314,0.0,0.0,85,0.00,,SKC,0.00,VWS V14.01,2013-02-15 01:12:00,
2013-02-14 19:15:00,16.3,11.8,29.90,West,270,0.0,0.0,82,0.00,,SKC,0.00,VWS V14.01,2013-02-15 01:15:00,
2013-02-14 19:17:00,18.0,14.3,29.88,NNW,340,0.0,0.0,85,0.00,,SKC,0.00,VWS V14.01,2013-02-15 01:17:00,
2013-02-14 19:20:00,16.2,11.7,29.90,WNW,283,0.0,0.0,82,0.00,,SKC,0.00,VWS V14.01,2013-02-15 01:20:00,
2013-02-14 19:22:00,17.9,14.2,29.88,WNW,286,0.0,0.0,85,0.00,,SKC,0.00,VWS V14.01,2013-02-15 01:22:00,
2013-02-14 19:25:00,16.2,11.7,29.90,West,279,0.0,0.0,82,0.00,,SKC,0.00,VWS V14.01,2013-02-15 01:25:00,
2013-02-14 19:27:00,17.8,14.1,29.88,West,270,0.0,0.0,85,0.00,,SKC,0.00,VWS V14.01,2013-02-15 01:27:00,
2013-02-14 19:30:00,16.1,11.3,29.90,NNE,13,0.0,0.0,81,0.00,,SKC,0.00,VWS V14.01,2013-02-15 01:30:00,
2013-02-14 19:32:00,17.6,13.9,29.89,WNW,290,0.0,0.0,85,0.00,,SKC,0.00,VWS V14.01,2013-02-15 01:32:00,
2013-02-14 19:35:00,16.0,11.5,29.90,NE,35,0.0,0.0,82,0.00,,SKC,0.00,VWS V14.01,2013-02-15 01:35:00,
2013-02-14 19:37:00,17.5,13.8,29.89,West,276,0.0,0.0,85,0.00,,SKC,0.00,VWS V14.01,2013-02-15 01:37:00,
2013-02-14 19:40:00,16.1,11.0,29.90,WNW,294,0.0,0.0,80,0.00,,SKC,0.00,VWS V14.01,2013-02-15 01:40:00,
2013-02-14 19:42:00,17.3,13.3,29.89,WNW,286,0.0,0.0,84,0.00,,SKC,0.00,VWS V14.01,2013-02-15 01:42:00,
2013-02-14 19:45:00,16.0,11.2,29.91,West,272,0.0,0.0,81,0.00,,SKC,0.00,VWS V14.01,2013-02-15 01:45:00,
2013-02-14 19:47:00,17.1,13.1,29.89,SW,229,0.0,0.0,84,0.00,,SKC,0.00,VWS V14.01,2013-02-15 01:47:00,
2013-02-14 19:50:00,15.9,11.1,29.91,West,271,0.0,0.0,81,0.00,,SKC,0.00,VWS V14.01,2013-02-15 01:50:00,
2013-02-14 19:52:00,17.0,12.7,29.89,SW,217,0.0,0.0,83,0.00,,SKC,0.00,VWS V14.01,2013-02-15 01:52:00,
2013-02-14 19:55:00,15.9,11.4,29.91,West,264,0.0,0.0,82,0.00,,SKC,0.00,VWS V14.01,2013-02-15 01:55:00,
2013-02-14 19:57:00,16.8,12.3,29.89,WNW,283,0.0,0.0,82,0.00,,SKC,0.00,VWS V14.01,2013-02-15 01:57:00,
2013-02-14 20:00:00,15.8,11.3,29.91,WSW,255,0.0,0.0,82,0.00,,SKC,0.00,VWS V14.01,2013-02-15 02:00:00,
2013-02-14 20:02:00,16.7,12.2,29.90,West,274,0.0,0.0,82,0.00,,SKC,0.00,VWS V14.01,2013-02-15 02:02:00,
2013-02-14 20:05:00,15.8,11.3,29.91,West,279,0.0,0.0,82,0.00,,SKC,0.00,VWS V14.01,2013-02-15 02:05:00,
2013-02-14 20:07:00,16.6,12.4,29.90,West,263,0.0,0.0,83,0.00,,SKC,0.00,VWS V14.01,2013-02-15 02:07:00,
2013-02-14 20:10:00,15.7,11.5,29.91,WNW,282,0.0,0.0,83,0.00,,SKC,0.00,VWS V14.01,2013-02-15 02:10:00,
2013-02-14 20:12:00,16.4,12.1,29.90,West,273,0.0,0.0,83,0.00,,SKC,0.00,VWS V14.01,2013-02-15 02:12:00,
2013-02-14 20:15:00,15.6,11.4,29.92,NW,308,0.0,0.0,83,0.00,,SKC,0.00,VWS V14.01,2013-02-15 02:15:00,
2013-02-14 20:17:00,16.3,11.8,29.90,West,269,0.0,0.0,82,0.00,,SKC,0.00,VWS V14.01,2013-02-15 02:17:00,
2013-02-14 20:20:00,15.5,11.5,29.92,West,276,0.0,0.0,84,0.00,,SKC,0.00,VWS V14.01,2013-02-15 02:20:00,
2013-02-14 20:22:00,16.2,11.7,29.90,West,269,0.0,0.0,82,0.00,,SKC,0.00,VWS V14.01,2013-02-15 02:22:00,
2013-02-14 20:25:00,15.5,11.5,29.92,West,281,0.0,0.0,84,0.00,,SKC,0.00,VWS V14.01,2013-02-15 02:25:00,
2013-02-14 20:27:00,16.2,11.7,29.90,West,271,0.0,0.0,82,0.00,,SKC,0.00,VWS V14.01,2013-02-15 02:27:00,
2013-02-14 20:30:00,15.4,11.4,29.92,West,274,0.0,0.0,84,0.00,,SKC,0.00,VWS V14.01,2013-02-15 02:30:00,
2013-02-14 20:32:00,16.1,11.3,29.90,NNE,12,0.0,0.0,81,0.00,,SKC,0.00,VWS V14.01,2013-02-15 02:32:00,
2013-02-14 20:35:00,15.3,11.3,29.92,WNW,282,0.0,0.0,84,0.00,,SKC,0.00,VWS V14.01,2013-02-15 02:35:00,
2013-02-14 20:37:00,16.0,11.5,29.90,NE,46,0.0,0.0,82,0.00,,SKC,0.00,VWS V14.01,2013-02-15 02:37:00,
2013-02-14 20:40:00,15.2,11.2,29.92,West,275,0.0,0.0,84,0.00,,SKC,0.00,VWS V14.01,2013-02-15 02:40:00,
2013-02-14 20:42:00,16.1,11.0,29.90,WSW,248,0.0,0.0,80,0.00,,SKC,0.00,VWS V14.01,2013-02-15 02:42:00,
2013-02-14 20:45:00,15.0,11.3,29.92,WNW,286,0.0,0.0,85,0.00,,SKC,0.00,VWS V14.01,2013-02-15 02:45:00,
2013-02-14 20:47:00,16.0,11.2,29.91,West,272,0.0,0.0,81,0.00,,SKC,0.00,VWS V14.01,2013-02-15 02:47:00,
2013-02-14 20:50:00,14.8,11.1,29.92,WNW,284,0.0,0.0,85,0.00,,SKC,0.00,VWS V14.01,2013-02-15 02:50:00,
2013-02-14 20:52:00,16.0,11.2,29.91,West,271,0.0,0.0,81,0.00,,SKC,0.00,VWS V14.01,2013-02-15 02:52:00,
2013-02-14 20:55:00,14.7,11.0,29.92,WNW,284,0.0,0.0,85,0.00,,SKC,0.00,VWS V14.01,2013-02-15 02:55:00,
2013-02-14 20:57:00,15.9,11.4,29.91,West,261,0.0,0.0,82,0.00,,SKC,0.00,VWS V14.01,2013-02-15 02:57:00,
2013-02-14 21:00:00,14.5,10.8,29.92,West,280,0.0,0.0,85,0.00,,SKC,0.00,VWS V14.01,2013-02-15 03:00:00,
2013-02-14 21:03:00,15.9,11.4,29.91,West,271,0.0,0.0,82,0.00,,SKC,0.00,VWS V14.01,2013-02-15 03:03:00,
2013-02-14 21:05:00,14.4,10.7,29.92,West,261,0.0,0.0,85,0.00,,SKC,0.00,VWS V14.01,2013-02-15 03:05:00,
2013-02-14 21:08:00,15.8,11.3,29.91,West,259,0.0,0.0,82,0.00,,SKC,0.00,VWS V14.01,2013-02-15 03:08:00,
2013-02-14 21:10:00,14.3,10.6,29.92,West,272,0.0,0.0,85,0.00,,SKC,0.00,VWS V14.01,2013-02-15 03:10:00,
2013-02-14 21:13:00,15.7,11.5,29.91,SSW,207,0.0,0.0,83,0.00,,SKC,0.00,VWS V14.01,2013-02-15 03:13:00,
2013-02-14 21:15:00,14.2,10.5,29.92,West,280,0.0,0.0,85,0.00,,SKC,0.00,VWS V14.01,2013-02-15 03:15:00,
2013-02-14 21:18:00,15.6,11.4,29.92,West,280,0.0,0.0,83,0.00,,SKC,0.00,VWS V14.01,2013-02-15 03:18:00,
2013-02-14 21:20:00,14.1,10.4,29.92,WNW,285,0.0,0.0,85,0.00,,SKC,0.00,VWS V14.01,2013-02-15 03:20:00,
2013-02-14 21:23:00,15.5,11.5,29.92,WSW,250,0.0,0.0,84,0.00,,SKC,0.00,VWS V14.01,2013-02-15 03:23:00,
2013-02-14 21:25:00,14.0,10.3,29.92,West,281,0.0,0.0,85,0.00,,SKC,0.00,VWS V14.01,2013-02-15 03:25:00,
2013-02-14 21:28:00,15.5,11.5,29.92,West,274,0.0,0.0,84,0.00,,SKC,0.00,VWS V14.01,2013-02-15 03:28:00,
2013-02-14 21:30:00,13.8,10.1,29.92,WNW,282,0.0,0.0,85,0.00,,SKC,0.00,VWS V14.01,2013-02-15 03:30:00,
2013-02-14 21:33:00,15.4,11.4,29.92,West,275,0.0,0.0,84,0.00,,SKC,0.00,VWS V14.01,2013-02-15 03:33:00,
2013-02-14 21:35:00,13.7,10.0,29.92,West,269,0.0,0.0,85,0.00,,SKC,0.00,VWS V14.01,2013-02-15 03:35:00,
2013-02-14 21:38:00,15.3,11.3,29.92,West,268,0.0,0.0,84,0.00,,SKC,0.00,VWS V14.01,2013-02-15 03:38:00,
2013-02-14 21:40:00,13.5,10.1,29.92,WSW,248,0.0,0.0,86,0.00,,SKC,0.00,VWS V14.01,2013-02-15 03:40:00,
2013-02-14 21:43:00,15.1,11.1,29.92,West,273,0.0,0.0,84,0.00,,SKC,0.00,VWS V14.01,2013-02-15 03:43:00,
2013-02-14 21:45:00,13.5,10.1,29.93,WNW,282,0.0,0.0,86,0.00,,SKC,0.00,VWS V14.01,2013-02-15 03:45:00,
2013-02-14 21:48:00,15.0,11.3,29.92,West,272,0.0,0.0,85,0.00,,SKC,0.00,VWS V14.01,2013-02-15 03:48:00,
2013-02-14 21:50:00,13.4,10.0,29.93,West,275,0.0,0.0,86,0.00,,SKC,0.00,VWS V14.01,2013-02-15 03:50:00,
2013-02-14 21:53:00,14.8,11.1,29.92,WNW,284,0.0,0.0,85,0.00,,SKC,0.00,VWS V14.01,2013-02-15 03:53:00,
2013-02-14 21:55:00,13.3,9.9,29.93,West,279,0.0,0.0,86,0.00,,SKC,0.00,VWS V14.01,2013-02-15 03:55:00,
2013-02-14 21:58:00,14.7,11.0,29.92,WNW,284,0.0,0.0,85,0.00,,SKC,0.00,VWS V14.01,2013-02-15 03:58:00,
2013-02-14 22:00:00,13.2,9.8,29.93,WSW,248,0.0,0.0,86,0.00,,SKC,0.00,VWS V14.01,2013-02-15 04:00:00,
2013-02-14 22:03:00,14.6,10.9,29.92,West,273,0.0,0.0,85,0.00,,SKC,0.00,VWS V14.01,2013-02-15 04:03:00,
2013-02-14 22:05:00,13.1,9.7,29.93,West,273,0.0,0.0,86,0.00,,SKC,0.00,VWS V14.01,2013-02-15 04:05:00,
2013-02-14 22:08:00,14.4,10.7,29.92,West,261,0.0,0.0,85,0.00,,SKC,0.00,VWS V14.01,2013-02-15 04:08:00,
2013-02-14 22:10:00,13.0,9.6,29.93,West,277,0.0,0.0,86,0.00,,SKC,0.00,VWS V14.01,2013-02-15 04:10:00,
2013-02-14 22:13:00,14.3,10.6,29.92,West,263,0.0,0.0,85,0.00,,SKC,0.00,VWS V14.01,2013-02-15 04:13:00,
2013-02-14 22:15:00,12.9,9.5,29.93,West,265,0.0,0.0,86,0.00,,SKC,0.00,VWS V14.01,2013-02-15 04:15:00,
2013-02-14 22:18:00,14.2,10.5,29.92,West,273,0.0,0.0,85,0.00,,SKC,0.00,VWS V14.01,2013-02-15 04:18:00,
2013-02-14 22:20:00,12.9,9.8,29.93,WNW,283,0.0,0.0,87,0.00,,SKC,0.00,VWS V14.01,2013-02-15 04:20:00,
2013-02-14 22:23:00,14.1,10.4,29.92,West,271,0.0,0.0,85,0.00,,SKC,0.00,VWS V14.01,2013-02-15 04:23:00,
2013-02-14 22:25:00,12.9,9.8,29.93,West,261,0.0,0.0,87,0.00,,SKC,0.00,VWS V14.01,2013-02-15 04:25:00,
2013-02-14 22:28:00,13.9,10.2,29.92,WSW,252,0.0,0.0,85,0.00,,SKC,0.00,VWS V14.01,2013-02-15 04:28:00,
2013-02-14 22:30:00,12.9,9.8,29.94,WNW,282,0.0,0.0,87,0.00,,SKC,0.00,VWS V14.01,2013-02-15 04:30:00,
2013-02-14 22:33:00,13.8,10.1,29.92,West,265,0.0,0.0,85,0.00,,SKC,0.00,VWS V14.01,2013-02-15 04:33:00,
2013-02-14 22:35:00,12.8,9.7,29.94,West,267,0.0,0.0,87,0.00,,SKC,0.00,VWS V14.01,2013-02-15 04:35:00,
2013-02-14 22:38:00,13.6,9.9,29.92,West,273,0.0,0.0,85,0.00,,SKC,0.00,VWS V14.01,2013-02-15 04:38:00,
2013-02-14 22:40:00,12.8,9.7,29.94,West,272,0.0,0.0,87,0.00,,SKC,0.00,VWS V14.01,2013-02-15 04:40:00,
2013-02-14 22:43:00,13.5,10.1,29.92,West,280,0.0,0.0,86,0.00,,SKC,0.00,VWS V14.01,2013-02-15 04:43:00,
2013-02-14 22:45:00,12.8,9.7,29.94,West,275,0.0,0.0,87,0.00,,SKC,0.00,VWS V14.01,2013-02-15 04:45:00,
2013-02-14 22:48:00,13.4,10.0,29.93,WNW,283,0.0,0.0,86,0.00,,SKC,0.00,VWS V14.01,2013-02-15 04:48:00,
2013-02-14 22:50:00,12.7,9.6,29.94,West,265,0.0,0.0,87,0.00,,SKC,0.00,VWS V14.01,2013-02-15 04:50:00,
2013-02-14 22:53:00,13.4,10.0,29.93,West,275,0.0,0.0,86,0.00,,SKC,0.00,VWS V14.01,2013-02-15 04:53:00,
2013-02-14 22:55:00,12.6,9.5,29.94,West,270,0.0,0.0,87,0.00,,SKC,0.00,VWS V14.01,2013-02-15 04:55:00,
2013-02-14 22:58:00,13.3,9.9,29.93,West,259,0.0,0.0,86,0.00,,SKC,0.00,VWS V14.01,2013-02-15 04:58:00,
2013-02-14 23:00:00,13.2,9.8,29.93,WNW,282,0.0,0.0,86,0.00,,SKC,0.00,VWS V14.01,2013-02-15 05:00:00,
2013-02-14 23:05:00,13.1,9.7,29.93,West,274,0.0,0.0,86,0.00,,SKC,0.00,VWS V14.01,2013-02-15 05:05:00,
2013-02-14 23:10:00,13.1,9.7,29.93,West,276,0.0,0.0,86,0.00,,SKC,0.00,VWS V14.01,2013-02-15 05:10:00,
2013-02-14 23:15:00,13.0,9.6,29.93,West,279,0.0,0.0,86,0.00,,SKC,0.00,VWS V14.01,2013-02-15 05:15:00,
2013-02-14 23:20:00,12.9,9.8,29.93,WNW,282,0.0,0.0,87,0.00,,SKC,0.00,VWS V14.01,2013-02-15 05:20:00,
2013-02-14 23:25:00,12.9,9.8,29.93,West,271,0.0,0.0,87,0.00,,SKC,0.00,VWS V14.01,2013-02-15 05:25:00,
2013-02-14 23:30:00,12.9,9.8,29.93,West,265,0.0,0.0,87,0.00,,SKC,0.00,VWS V14.01,2013-02-15 05:30:00,
2013-02-14 23:35:00,12.8,9.7,29.94,WNW,286,0.0,0.0,87,0.00,,SKC,0.00,VWS V14.01,2013-02-15 05:35:00,
2013-02-14 23:40:00,12.8,9.7,29.94,West,274,0.0,0.0,87,0.00,,SKC,0.00,VWS V14.01,2013-02-15 05:40:00,
2013-02-14 23:45:00,12.8,9.7,29.94,West,276,0.0,0.0,87,0.00,,SKC,0.00,VWS V14.01,2013-02-15 05:45:00,
2013-02-14 23:50:00,12.7,9.6,29.94,WNW,288,0.0,0.0,87,0.00,,SKC,0.00,VWS V14.01,2013-02-15 05:50:00,
2013-02-14 23:55:00,12.7,9.6,29.94,West,274,0.0,0.0,87,0.00,,SKC,0.00,VWS V14.01,2013-02-15 05:55:00,